Regional Weather Roundup
Issued by NWS

Home | Current Version | Previous Version | Graphics & Text | Print | Product List | Glossary On
Versions: 1 2 3 4 5 6 7 8 9 10 11 12 13 14 15 16 17 18 19 20 21 22 23 24 25 26 27 28 29 30 31 32 33 34 35 36 37 38 39 40 41 42 43 44 45 46 47 48 49 50
000
ASUS45 KCYS 201610
RWRWY

WYOMING REGIONAL WEATHER ROUNDUP
NATIONAL WEATHER SERVICE CHEYENNE WY
1000 AM MDT THU JUL 20 2017

NOTE:  "FAIR" INDICATES FEW OR NO CLOUDS BELOW 12,000 FEET
WITH NO SIGNIFICANT WEATHER AND/OR OBSTRUCTIONS TO VISIBILITY.

WYZ001-201700-
YELLOWSTONE NATIONAL PARK

CITY           SKY/WX    TMP DP  RH WIND       PRES   REMARKS
LK YELLOWSTONE   N/A     66  46  48 CALM      30.35F
W YELLOWSTONE  NOT AVBL

$$
WYZ002>013-054>058-071-098>099-201700-
NORTHERN WYOMING

CITY           SKY/WX    TMP DP  RH WIND       PRES   REMARKS
JACKSON        SUNNY     70  48  46 S3        30.25F
CODY           NOT AVBL
GREYBULL       FAIR      83  53  35 S9        30.02F
WORLAND        FAIR      82  57  42 W5        30.04F
SHERIDAN       FAIR      82  55  39 CALM      29.99F
BUFFALO        FAIR      84  53  34 SE14      30.09F
GILLETTE       FAIR      87  54  32 S20G28    30.06F
HULETT         FAIR      86  55  35 S16G23    30.10F
NEWCASTLE      FAIR      81  55  41 S17G25    30.14F

$$
WYZ014>020-022>026-101>103-201700-
CENTRAL WYOMING

CITY           SKY/WX    TMP DP  RH WIND       PRES   REMARKS
BIG PINEY      FAIR      67  52  58 VRB3      30.33S
PINEDALE       FAIR      70  48  46 CALM      30.32F
DUBOIS         FAIR      73  43  33 N8        30.27F
LANDER         FAIR      73  55  53 CALM      30.18F
RIVERTON       FAIR      74  53  48 S7        30.18F
CASPER         FAIR      81  51  35 S17G26    30.17F
DOUGLAS        FAIR      84  51  31 SE14      30.17F

$$
WYZ021-027>030-104>119-201700-
SOUTHERN WYOMING

CITY           SKY/WX    TMP DP  RH WIND       PRES   REMARKS
EVANSTON       FAIR      69  50  50 SW5       30.32S
KEMMERER         N/A     70  48  46 CALM      30.34S
FORT BRIDGER   FAIR      70  49  46 N3        30.34F
ROCK SPRINGS   FAIR      70  50  49 CALM      30.31S
RAWLINS        FAIR      76  50  40 S3        30.32S
SARATOGA       FAIR      73  50  43 S7        30.35S
LARAMIE        FAIR      74  48  39 SW8       30.34F
CHEYENNE       FAIR      76  55  48 S10       30.29F
TORRINGTON     FAIR      77  61  57 VRB3      30.16F
PINE BLUFFS    FAIR      75  59  57 SE5       30.24F

$$



USA.gov is the U.S. government's official web portal to all federal, state and local government web resources and services.